User: anonymous   Login
Location: Unspecified
(0.0000°N, 0.0000°E)
Time: 10:50:24
(UTC+00:00)
Language:

SICRAL 2 - Orbit

View from above orbital plane
View from above orbital plane
View from above satellite
View from above satellite

Ground track
Ground track

The orbit data is extracted from the following two-line orbital elements,

1 40614U 15022B   18295.83730735 0.00000000  00000-0  00000-0 0    09
2 40614   0.0330   9.6323 0001000  85.2560 274.7357  1.00270000    08
Epoch (UTC): 22 October 2018 20:05:43
Eccentricity: 0.0001000
inclination: 0.0330°
perigee height: 35782 km
apogee height: 35791 km
right ascension of ascending node: 9.6323°
argument of perigee: 85.2560°
revolutions per day: 1.00270000
mean anomaly at epoch: 274.7357°
orbit number at epoch: 0

The dashed part of the orbit path shows where the satellite is in the earth's shadow,  

DLR